Location: Newark
(42.2947°N, 5.1925°W)
Time: 19:24:44
(UTC+00:00)

STARLINK 1025 - Pass Details

Date: 20 December 2019
Orbit: 346 x 354 km, 53.0° (Epoch: 17 January)

Event Time Altitude Azimuth Distance (km) Brightness Sun altitude
Rises 18:57:17 0° 215° (SW) 2,258 7.5 -22.5°
Reaches altitude 10° 18:59:23 10° 207° (SSW) 1,414 6.2 -22.9°
Enters shadow 19:00:39 21° 195° (SSW) 952 5.1 -23.1°
